Location: *
(31.2983°S, 151.4094°E)
Time: 10:43:17
(UTC+00:00)

Cosmos 1570 Rocket - Pass Details

Date: 25 August 2019
Orbit: 762 x 789 km, 74.1° (Epoch: 20 October)

Event Time Altitude Azimuth Distance (km) Brightness Sun altitude
Exits shadow 18:24:15 10° 193° (SSW) 2,330 6.4 -25.2°
Maximum altitude 18:29:32 76° 107° (ESE) 800 4.1 -24.0°
Drops below altitude 10° 18:34:45 10° 21° (NNE) 2,297 6.7 -22.9°
Sets 18:37:06 0° 19° (NNE) 3,213 7.5 -22.4°
